START_TIME,STEP,MOV.,AL01,t_acc.,AL02,t_acc.,E37,t_acc.,H21,t_acc.
1979-07-29 03:00:33.440 ,1,0,0.,24.0,0.,24.0,2.,24.0,0.,24.0
1979-07-29 03:00:57.440 ,2,1,0.,24.0,0.,24.0,0.,24.0,0.,24.0
1979-07-29 03:01:21.440 ,2,0,0.,24.0,0.,24.0,2.,24.0,0.,24.0
1979-07-29 03:01:45.440 ,3,1,0.,24.0,0.,24.0,2.,24.0,0.,24.0
1979-07-29 03:02:09.440 ,3,0,0.,24.0,0.,24.0,0.,24.0,0.,24.0
1979-07-29 03:02:33.440 ,4,1,0.,24.0,0.,24.0,1.,24.0,0.,24.0
1979-07-29 03:02:57.440 ,4,0,0.,24.0,0.,24.0,2.,24.0,0.,24.0
1979-07-29 03:03:21.440 ,5,1,0.,24.0,0.,24.0,1.,24.0,0.,24.0
1979-07-29 03:03:45.440 ,5,0,0.,24.0,0.,24.0,2.,24.0,0.,24.0
1979-07-29 03:04:09.440 ,6,1,0.,24.0,0.,24.0,1.,24.0,0.,24.0
1979-07-29 03:04:33.440 ,6,0,0.,24.0,0.,24.0,2.,24.0,0.,24.0
1979-07-29 03:04:57.440 ,7,1,9.,24.0,0.,24.0,2.,24.0,0.,24.0
1979-07-29 03:05:21.440 ,7,0,34.,24.0,0.,24.0,3.,24.0,0.,24.0
1979-07-29 03:05:45.440 ,7,1,27.,24.0,0.,24.0,2.,24.0,0.,24.0
1979-07-29 03:06:09.440 ,7,0,21.,24.0,0.,24.0,0.,24.0,0.,24.0
1979-07-29 03:06:33.440 ,6,1,23.,24.0,0.,24.0,2.,24.0,0.,24.0
1979-07-29 03:06:57.440 ,6,0,0.,24.0,0.,24.0,1.,24.0,0.,24.0
1979-07-29 03:07:21.440 ,5,1,0.,24.0,0.,24.0,0.,24.0,0.,24.0
1979-07-29 03:07:45.440 ,5,0,0.,24.0,0.,24.0,1.,24.0,0.,24.0
1979-07-29 03:08:09.440 ,4,1,0.,24.0,0.,24.0,4.,24.0,0.,24.0
1979-07-29 03:08:33.440 ,4,0,0.,24.0,0.,24.0,1.,24.0,0.,24.0
1979-07-29 03:08:57.440 ,3,1,0.,24.0,0.,24.0,1.,24.0,0.,24.0
1979-07-29 03:09:21.440 ,3,0,0.,24.0,0.,24.0,1.,24.0,0.,24.0
1979-07-29 03:09:45.440 ,2,1,0.,24.0,0.,24.0,1.,24.0,0.,24.0
1979-07-29 03:10:09.440 ,2,0,0.,24.0,0.,24.0,1.,24.0,0.,24.0
1979-07-29 03:11:21.440 ,0,0,0.,24.0,0.,24.0,1.,24.0,0.,24.0
1979-07-29 03:11:45.440 ,0,0,0.,24.0,0.,24.0,1.,24.0,0.,24.0
1979-07-29 03:12:09.440 ,0,1,0.,24.0,0.,24.0,3.,24.0,0.,24.0
1979-07-29 03:12:33.440 ,0,0,1.,24.0,0.,24.0,0.,24.0,0.,24.0
1979-07-29 03:12:57.440 ,1,1,0.,24.0,0.,24.0,0.,24.0,0.,24.0
1979-07-29 03:13:21.440 ,1,0,0.,24.0,0.,24.0,3.,24.0,0.,24.0
1979-07-29 03:13:45.440 ,2,1,0.,24.0,0.,24.0,3.,24.0,0.,24.0
1979-07-29 03:14:09.440 ,2,0,0.,24.0,0.,24.0,0.,24.0,0.,24.0
1979-07-29 03:14:33.440 ,3,1,0.,24.0,0.,24.0,1.,24.0,0.,24.0
1979-07-29 03:14:57.440 ,0,0,0.,24.0,0.,24.0,1.,24.0,0.,24.0
1979-07-29 03:15:21.440 ,4,1,0.,24.0,0.,24.0,0.,24.0,0.,24.0
1979-07-29 03:15:45.440 ,4,0,0.,24.0,0.,24.0,2.,24.0,0.,24.0
1979-07-29 03:16:09.440 ,5,1,0.,24.0,0.,24.0,3.,24.0,0.,24.0
1979-07-29 03:16:33.440 ,5,0,0.,24.0,0.,24.0,2.,24.0,0.,24.0
1979-07-29 03:16:57.440 ,6,1,0.,24.0,0.,24.0,2.,24.0,0.,24.0
1979-07-29 03:17:21.440 ,6,0,1.,24.0,0.,24.0,0.,24.0,0.,24.0
1979-07-29 03:17:45.440 ,7,1,8.,24.0,0.,24.0,1.,24.0,0.,24.0
1979-07-29 03:18:09.440 ,7,0,23.,24.0,0.,24.0,0.,24.0,0.,24.0
1979-07-29 03:18:33.440 ,7,1,31.,24.0,0.,24.0,2.,24.0,0.,24.0
1979-07-29 03:18:57.440 ,7,0,46.,24.0,0.,24.0,3.,24.0,0.,24.0
1979-07-29 03:19:21.440 ,6,1,18.,24.0,0.,24.0,3.,24.0,0.,24.0
1979-07-29 03:19:45.440 ,6,0,1.,24.0,0.,24.0,1.,24.0,0.,24.0
1979-07-29 03:20:09.440 ,5,1,0.,24.0,0.,24.0,3.,24.0,0.,24.0
1979-07-29 03:20:33.440 ,5,0,0.,24.0,0.,24.0,1.,24.0,0.,24.0
1979-07-29 03:20:57.440 ,4,1,0.,24.0,0.,24.0,2.,24.0,0.,24.0
1979-07-29 03:21:21.440 ,4,0,1.,24.0,0.,24.0,1.,24.0,0.,24.0
1979-07-29 03:21:45.440 ,3,1,0.,24.0,0.,24.0,2.,24.0,0.,24.0
1979-07-29 03:22:09.440 ,3,0,,0,,0,,0,,0
1979-07-29 03:22:33.440 ,2,1,0.,24.0,0.,24.0,1.,24.0,0.,24.0
1979-07-29 03:22:57.440 ,2,0,0.,24.0,0.,24.0,2.,24.0,0.,24.0
1979-07-29 03:23:21.440 ,1,1,0.,24.0,0.,24.0,0.,24.0,0.,24.0
1979-07-29 03:23:45.440 ,1,0,0.,24.0,0.,24.0,0.,24.0,0.,24.0
1979-07-29 03:24:09.440 ,0,1,0.,24.0,0.,24.0,2.,24.0,0.,24.0
1979-07-29 03:24:33.440 ,0,0,0.,24.0,0.,24.0,1.,24.0,0.,24.0
1979-07-29 03:24:57.440 ,0,1,0.,24.0,0.,24.0,2.,24.0,0.,24.0
1979-07-29 03:25:21.440 ,0,0,0.,24.0,0.,24.0,2.,24.0,0.,24.0
1979-07-29 03:25:45.440 ,1,1,0.,24.0,0.,24.0,1.,24.0,0.,24.0
1979-07-29 03:26:09.440 ,1,0,0.,24.0,0.,24.0,2.,24.0,0.,24.0
1979-07-29 03:26:33.440 ,2,1,0.,24.0,0.,24.0,2.,24.0,0.,24.0
1979-07-29 03:26:57.440 ,2,0,0.,24.0,0.,24.0,1.,24.0,0.,24.0
1979-07-29 03:27:21.440 ,3,1,0.,24.0,0.,24.0,1.,24.0,0.,24.0
1979-07-29 03:27:45.440 ,3,0,0.,24.0,0.,24.0,0.,24.0,0.,24.0
1979-07-29 03:28:09.440 ,4,1,0.,24.0,0.,24.0,0.,24.0,0.,24.0
1979-07-29 03:28:33.440 ,4,0,0.,24.0,0.,24.0,2.,24.0,0.,24.0
1979-07-29 03:28:57.440 ,5,1,0.,24.0,0.,24.0,3.,24.0,0.,24.0
1979-07-29 03:29:21.440 ,5,0,0.,24.0,0.,24.0,1.,24.0,0.,24.0
1979-07-29 03:29:45.440 ,6,1,2.,24.0,0.,24.0,2.,24.0,0.,24.0
1979-07-29 03:30:09.440 ,6,0,0.,24.0,0.,24.0,0.,24.0,0.,24.0
1979-07-29 03:30:33.440 ,7,0,9.,24.0,0.,24.0,2.,24.0,0.,24.0
1979-07-29 03:30:57.440 ,7,0,29.,24.0,0.,24.0,3.,24.0,0.,24.0
1979-07-29 03:31:21.440 ,5,1,18.,24.0,0.,24.0,2.,24.0,0.,24.0
1979-07-29 03:31:45.440 ,1,1,0.,24.0,0.,24.0,1.,24.0,0.,24.0
1979-07-29 03:32:09.440 ,2,1,0.,24.0,0.,24.0,1.,24.0,0.,24.0
1979-07-29 03:32:33.440 ,6,1,0.,24.0,0.,24.0,1.,24.0,0.,24.0
1979-07-29 03:32:57.440 ,5,1,11.,24.0,0.,24.0,2.,24.0,0.,24.0
1979-07-29 03:33:21.440 ,1,1,0.,24.0,1.,24.0,0.,24.0,0.,24.0
1979-07-29 03:33:45.440 ,2,1,0.,24.0,0.,24.0,4.,24.0,0.,24.0
1979-07-29 03:34:09.440 ,6,1,0.,24.0,0.,24.0,3.,24.0,0.,24.0
1979-07-29 03:34:33.440 ,5,1,11.,24.0,0.,24.0,3.,24.0,0.,24.0
1979-07-29 03:34:57.440 ,1,1,0.,24.0,0.,24.0,0.,24.0,0.,24.0
1979-07-29 03:35:21.440 ,2,1,0.,24.0,0.,24.0,1.,24.0,0.,24.0
1979-07-29 03:35:45.440 ,6,1,1.,24.0,0.,24.0,0.,24.0,0.,24.0
1979-07-29 03:36:09.440 ,5,1,17.,24.0,0.,24.0,2.,24.0,0.,24.0
1979-07-29 03:36:33.440 ,1,1,0.,24.0,0.,24.0,4.,24.0,0.,24.0
1979-07-29 03:36:57.440 ,2,1,0.,24.0,0.,24.0,1.,24.0,0.,24.0
1979-07-29 03:37:21.440 ,6,1,0.,24.0,0.,24.0,0.,24.0,0.,24.0
1979-07-29 03:37:45.440 ,5,1,10.,24.0,0.,24.0,0.,24.0,0.,24.0
1979-07-29 03:38:09.440 ,1,1,1.,24.0,0.,24.0,1.,24.0,0.,24.0
1979-07-29 03:38:33.440 ,2,1,0.,24.0,0.,24.0,3.,24.0,0.,24.0
1979-07-29 03:38:57.440 ,6,1,0.,24.0,0.,24.0,1.,24.0,0.,24.0
1979-07-29 03:39:21.440 ,5,1,19.,24.0,0.,24.0,1.,24.0,0.,24.0
1979-07-29 03:39:45.440 ,1,1,0.,24.0,0.,24.0,0.,24.0,0.,24.0
1979-07-29 03:40:09.440 ,2,1,0.,24.0,0.,24.0,4.,24.0,0.,24.0
1979-07-29 03:40:33.440 ,6,1,0.,24.0,1.,24.0,1.,24.0,0.,24.0
1979-07-29 03:40:57.440 ,5,1,16.,24.0,0.,24.0,3.,24.0,0.,24.0
1979-07-29 03:41:21.440 ,1,1,0.,24.0,0.,24.0,0.,24.0,0.,24.0
1979-07-29 03:41:45.440 ,0,0,0.,24.0,0.,24.0,4.,24.0,0.,24.0
1979-07-29 03:42:09.440 ,0,0,1.,24.0,0.,24.0,2.,24.0,0.,24.0
1979-07-29 03:42:33.440 ,5,1,17.,24.0,0.,24.0,1.,24.0,0.,24.0
1979-07-29 03:42:57.440 ,5,0,0.,24.0,0.,24.0,1.,24.0,0.,24.0
1979-07-29 03:43:21.440 ,4,1,0.,24.0,0.,24.0,2.,24.0,0.,24.0
1979-07-29 03:43:45.440 ,4,0,0.,24.0,0.,24.0,1.,24.0,0.,24.0
1979-07-29 03:44:09.440 ,3,1,0.,24.0,0.,24.0,1.,24.0,0.,24.0
1979-07-29 03:44:33.440 ,3,0,0.,24.0,0.,24.0,1.,24.0,0.,24.0
1979-07-29 03:44:57.440 ,2,1,0.,24.0,0.,24.0,1.,24.0,0.,24.0
1979-07-29 03:45:21.440 ,2,0,0.,24.0,0.,24.0,2.,24.0,0.,24.0
1979-07-29 03:45:45.440 ,1,1,0.,24.0,0.,24.0,4.,24.0,0.,24.0
1979-07-29 03:46:09.440 ,1,0,0.,24.0,0.,24.0,2.,24.0,0.,24.0
1979-07-29 03:46:33.440 ,0,1,0.,24.0,0.,24.0,1.,24.0,0.,24.0
1979-07-29 03:46:57.440 ,0,0,0.,24.0,0.,24.0,0.,24.0,0.,24.0
1979-07-29 03:47:21.440 ,0,1,0.,24.0,0.,24.0,0.,24.0,0.,24.0
1979-07-29 03:47:45.440 ,0,0,0.,24.0,0.,24.0,3.,24.0,0.,24.0
1979-07-29 03:48:09.440 ,1,1,0.,24.0,0.,24.0,2.,24.0,0.,24.0
1979-07-29 03:48:33.440 ,1,0,0.,24.0,0.,24.0,1.,24.0,0.,24.0
1979-07-29 03:48:57.440 ,2,1,0.,24.0,0.,24.0,2.,24.0,0.,24.0
1979-07-29 03:49:21.440 ,2,0,0.,24.0,0.,24.0,0.,24.0,0.,24.0
1979-07-29 03:49:45.440 ,3,1,0.,24.0,0.,24.0,1.,24.0,0.,24.0
1979-07-29 03:50:09.440 ,3,0,0.,24.0,0.,24.0,3.,24.0,0.,24.0
1979-07-29 03:50:33.440 ,4,1,0.,24.0,0.,24.0,1.,24.0,0.,24.0
1979-07-29 03:50:57.440 ,4,0,0.,24.0,0.,24.0,0.,24.0,0.,24.0
1979-07-29 03:51:21.440 ,5,1,0.,24.0,0.,24.0,2.,24.0,0.,24.0
1979-07-29 03:51:45.440 ,5,0,0.,24.0,0.,24.0,0.,24.0,0.,24.0
1979-07-29 03:52:09.440 ,6,1,0.,24.0,0.,24.0,5.,24.0,0.,24.0
1979-07-29 03:52:33.440 ,6,0,0.,24.0,0.,24.0,1.,24.0,0.,24.0
1979-07-29 03:52:57.440 ,7,1,7.,24.0,0.,24.0,1.,24.0,0.,24.0
1979-07-29 03:53:21.440 ,7,0,37.,24.0,0.,24.0,1.,24.0,0.,24.0
1979-07-29 03:53:45.440 ,7,1,24.,24.0,0.,24.0,1.,24.0,0.,24.0
1979-07-29 03:54:09.440 ,7,0,45.,24.0,0.,24.0,1.,24.0,0.,24.0
1979-07-29 03:54:33.440 ,6,1,27.,24.0,0.,24.0,0.,24.0,0.,24.0
1979-07-29 03:54:57.440 ,6,0,0.,24.0,0.,24.0,1.,24.0,0.,24.0
1979-07-29 03:55:21.440 ,5,1,0.,24.0,0.,24.0,2.,24.0,0.,24.0
1979-07-29 03:55:45.440 ,5,0,0.,24.0,0.,24.0,2.,24.0,0.,24.0
1979-07-29 03:56:09.440 ,4,1,0.,24.0,0.,24.0,3.,24.0,0.,24.0
1979-07-29 03:56:33.440 ,4,0,0.,24.0,1.,24.0,1.,24.0,0.,24.0
1979-07-29 03:56:57.440 ,3,1,0.,24.0,0.,24.0,2.,24.0,0.,24.0
1979-07-29 03:57:21.440 ,3,0,0.,24.0,0.,24.0,0.,24.0,0.,24.0
1979-07-29 03:57:45.440 ,2,1,0.,24.0,0.,24.0,1.,24.0,0.,24.0
1979-07-29 03:58:09.440 ,2,0,0.,24.0,0.,24.0,4.,24.0,0.,24.0
1979-07-29 03:58:33.440 ,1,1,0.,24.0,0.,24.0,2.,24.0,0.,24.0
1979-07-29 03:58:57.440 ,1,0,0.,24.0,0.,24.0,2.,24.0,0.,24.0
1979-07-29 03:59:21.440 ,0,1,0.,24.0,0.,24.0,1.,24.0,0.,24.0
1979-07-29 03:59:45.440 ,0,0,0.,24.0,0.,24.0,1.,24.0,0.,24.0
1979-07-29 04:00:09.440 ,0,1,1.,24.0,0.,24.0,0.,24.0,0.,24.0
1979-07-29 04:00:33.440 ,0,0,0.,24.0,0.,24.0,3.,24.0,0.,24.0
1979-07-29 04:00:57.440 ,1,1,0.,24.0,0.,24.0,1.,24.0,0.,24.0
1979-07-29 04:01:21.440 ,1,0,0.,24.0,0.,24.0,1.,24.0,0.,24.0
1979-07-29 04:01:45.440 ,2,1,1.,24.0,0.,24.0,1.,24.0,0.,24.0
1979-07-29 04:02:09.440 ,2,0,0.,24.0,0.,24.0,0.,24.0,0.,24.0
1979-07-29 04:02:33.440 ,3,1,0.,24.0,0.,24.0,1.,24.0,0.,24.0
1979-07-29 04:02:57.440 ,3,0,0.,24.0,0.,24.0,1.,24.0,0.,24.0
1979-07-29 04:03:21.440 ,4,1,0.,24.0,0.,24.0,1.,24.0,0.,24.0
1979-07-29 04:03:45.440 ,4,0,0.,24.0,0.,24.0,1.,24.0,0.,24.0
1979-07-29 04:04:09.440 ,5,1,0.,24.0,0.,24.0,2.,24.0,0.,24.0
1979-07-29 04:04:33.440 ,5,0,0.,24.0,0.,24.0,2.,24.0,0.,24.0
1979-07-29 04:04:57.440 ,6,1,1.,24.0,0.,24.0,1.,24.0,0.,24.0
1979-07-29 04:05:21.440 ,6,0,0.,24.0,0.,24.0,2.,24.0,0.,24.0
1979-07-29 04:05:45.440 ,7,1,5.,24.0,0.,24.0,2.,24.0,0.,24.0
1979-07-29 04:06:09.440 ,7,0,28.,24.0,0.,24.0,1.,24.0,0.,24.0
1979-07-29 04:06:33.440 ,7,1,40.,24.0,0.,24.0,3.,24.0,0.,24.0
1979-07-29 04:06:57.440 ,7,0,30.,24.0,0.,24.0,1.,24.0,0.,24.0
1979-07-29 04:07:21.440 ,6,1,25.,24.0,0.,24.0,4.,24.0,0.,24.0
1979-07-29 04:08:09.440 ,5,1,0.,24.0,0.,24.0,2.,24.0,0.,24.0
1979-07-29 04:08:33.440 ,5,0,0.,24.0,0.,24.0,3.,24.0,0.,24.0
1979-07-29 04:08:57.440 ,4,1,0.,24.0,0.,24.0,0.,24.0,0.,24.0
1979-07-29 04:09:21.440 ,4,0,0.,24.0,0.,24.0,3.,24.0,0.,24.0
1979-07-29 04:09:45.430 ,3,1,0.,24.0,0.,24.0,4.,24.0,0.,24.0
1979-07-29 04:10:09.430 ,3,0,0.,24.0,0.,24.0,1.,24.0,0.,24.0
1979-07-29 04:10:33.430 ,2,1,0.,24.0,0.,24.0,1.,24.0,0.,24.0
1979-07-29 04:10:57.430 ,2,0,0.,24.0,0.,24.0,0.,24.0,0.,24.0
1979-07-29 04:11:45.430 ,1,0,0.,24.0,0.,24.0,2.,24.0,0.,24.0
1979-07-29 04:12:09.430 ,0,1,0.,24.0,0.,24.0,1.,24.0,0.,24.0
1979-07-29 04:12:33.430 ,0,0,0.,24.0,0.,24.0,1.,24.0,0.,24.0
1979-07-29 04:12:57.430 ,0,1,1.,24.0,0.,24.0,0.,24.0,0.,24.0
1979-07-29 04:13:21.430 ,0,0,0.,24.0,0.,24.0,2.,24.0,0.,24.0
1979-07-29 04:13:45.430 ,1,1,0.,24.0,0.,24.0,1.,24.0,0.,24.0
1979-07-29 04:14:09.430 ,1,0,0.,24.0,0.,24.0,0.,24.0,0.,24.0
1979-07-29 04:14:33.430 ,2,1,0.,24.0,0.,24.0,1.,24.0,0.,24.0
1979-07-29 04:14:57.430 ,2,0,0.,24.0,0.,24.0,0.,24.0,0.,24.0
1979-07-29 04:15:21.430 ,3,1,1.,24.0,0.,24.0,1.,24.0,0.,24.0
1979-07-29 04:15:45.430 ,3,0,0.,24.0,0.,24.0,1.,24.0,0.,24.0
1979-07-29 04:16:09.430 ,4,1,0.,24.0,0.,24.0,2.,24.0,0.,24.0
1979-07-29 04:16:33.430 ,4,0,0.,24.0,0.,24.0,1.,24.0,0.,24.0
1979-07-29 04:16:57.430 ,5,1,0.,24.0,0.,24.0,0.,24.0,0.,24.0
1979-07-29 04:17:21.440 ,5,0,0.,24.0,0.,24.0,5.,24.0,0.,24.0
1979-07-29 04:17:45.440 ,6,1,0.,24.0,0.,24.0,2.,24.0,0.,24.0
1979-07-29 04:18:09.440 ,6,0,0.,24.0,0.,24.0,2.,24.0,0.,24.0
1979-07-29 04:18:33.440 ,7,0,7.,24.0,0.,24.0,2.,24.0,0.,24.0
1979-07-29 04:18:57.440 ,7,0,39.,24.0,0.,24.0,2.,24.0,0.,24.0
1979-07-29 04:19:21.440 ,5,1,13.,24.0,0.,24.0,2.,24.0,0.,24.0
1979-07-29 04:19:45.440 ,1,1,0.,24.0,0.,24.0,1.,24.0,0.,24.0
1979-07-29 04:20:09.440 ,2,1,0.,24.0,0.,24.0,2.,24.0,0.,24.0
1979-07-29 04:20:33.440 ,6,1,0.,24.0,0.,24.0,0.,24.0,0.,24.0
1979-07-29 04:20:57.440 ,5,1,20.,24.0,0.,24.0,4.,24.0,0.,24.0
1979-07-29 04:21:21.440 ,1,1,0.,24.0,0.,24.0,2.,24.0,0.,24.0
1979-07-29 04:21:45.440 ,2,1,0.,24.0,0.,24.0,2.,24.0,0.,24.0
1979-07-29 04:22:09.440 ,6,1,0.,24.0,0.,24.0,3.,24.0,0.,24.0
1979-07-29 04:22:33.440 ,5,1,13.,24.0,0.,24.0,1.,24.0,0.,24.0
1979-07-29 04:22:57.440 ,1,1,0.,24.0,0.,24.0,3.,24.0,0.,24.0
1979-07-29 04:23:21.440 ,2,1,0.,24.0,0.,24.0,3.,24.0,0.,24.0
1979-07-29 04:23:45.440 ,6,1,0.,24.0,0.,24.0,2.,24.0,0.,24.0
1979-07-29 04:24:09.440 ,5,1,21.,24.0,0.,24.0,2.,24.0,0.,24.0
1979-07-29 04:24:33.440 ,1,1,0.,24.0,0.,24.0,6.,24.0,0.,24.0
1979-07-29 04:24:57.440 ,2,1,0.,24.0,0.,24.0,2.,24.0,0.,24.0
1979-07-29 04:25:21.440 ,6,1,0.,24.0,0.,24.0,2.,24.0,0.,24.0
1979-07-29 04:25:45.440 ,5,1,22.,24.0,0.,24.0,2.,24.0,0.,24.0
1979-07-29 04:26:09.440 ,1,1,0.,24.0,0.,24.0,1.,24.0,0.,24.0
1979-07-29 04:26:33.440 ,2,1,0.,24.0,0.,24.0,1.,24.0,0.,24.0
1979-07-29 04:26:57.440 ,6,1,0.,24.0,0.,24.0,0.,24.0,0.,24.0
1979-07-29 04:27:21.440 ,5,1,15.,24.0,0.,24.0,0.,24.0,0.,24.0
1979-07-29 04:27:45.440 ,1,1,1.,24.0,0.,24.0,1.,24.0,0.,24.0
1979-07-29 04:28:09.440 ,2,1,0.,24.0,0.,24.0,1.,24.0,0.,24.0
1979-07-29 04:28:33.440 ,6,1,0.,24.0,0.,24.0,2.,24.0,0.,24.0
1979-07-29 04:28:57.430 ,5,1,19.,24.0,0.,24.0,2.,24.0,0.,24.0
1979-07-29 04:29:21.430 ,1,1,0.,24.0,0.,24.0,1.,24.0,0.,24.0
1979-07-29 04:29:45.430 ,0,0,0.,24.0,0.,24.0,1.,24.0,0.,24.0
1979-07-29 04:30:09.430 ,0,0,0.,24.0,0.,24.0,0.,24.0,0.,24.0
1979-07-29 04:30:33.430 ,5,1,19.,24.0,0.,24.0,4.,24.0,0.,24.0
1979-07-29 04:30:57.430 ,5,0,0.,24.0,0.,24.0,3.,24.0,0.,24.0
1979-07-29 04:31:21.430 ,4,1,0.,24.0,0.,24.0,2.,24.0,0.,24.0
1979-07-29 04:31:45.430 ,4,0,0.,24.0,0.,24.0,2.,24.0,0.,24.0
1979-07-29 04:32:09.430 ,3,1,0.,24.0,0.,24.0,4.,24.0,0.,24.0
1979-07-29 04:32:33.430 ,3,0,0.,24.0,0.,24.0,0.,24.0,0.,24.0
1979-07-29 04:32:57.430 ,2,1,0.,24.0,0.,24.0,4.,24.0,0.,24.0
1979-07-29 04:33:21.430 ,2,0,0.,24.0,0.,24.0,2.,24.0,0.,24.0
1979-07-29 04:33:45.430 ,1,1,0.,24.0,0.,24.0,2.,24.0,0.,24.0
1979-07-29 04:34:09.430 ,1,0,0.,24.0,0.,24.0,3.,24.0,0.,24.0
1979-07-29 04:34:33.430 ,0,1,0.,24.0,0.,24.0,3.,24.0,0.,24.0
1979-07-29 04:34:57.430 ,0,0,0.,24.0,0.,24.0,4.,24.0,0.,24.0
1979-07-29 04:35:21.430 ,0,1,0.,24.0,0.,24.0,5.,24.0,0.,24.0
1979-07-29 04:35:45.430 ,0,0,0.,24.0,0.,24.0,0.,24.0,0.,24.0
1979-07-29 04:36:09.430 ,1,1,0.,24.0,0.,24.0,2.,24.0,0.,24.0
1979-07-29 04:36:33.430 ,1,0,0.,24.0,0.,24.0,0.,24.0,0.,24.0
1979-07-29 04:36:57.430 ,2,1,0.,24.0,0.,24.0,2.,24.0,0.,24.0
1979-07-29 04:37:21.430 ,2,0,0.,24.0,0.,24.0,2.,24.0,0.,24.0
1979-07-29 04:37:45.430 ,3,1,0.,24.0,1.,24.0,0.,24.0,0.,24.0
1979-07-29 04:38:09.430 ,3,0,0.,24.0,0.,24.0,2.,24.0,0.,24.0
1979-07-29 04:38:33.430 ,4,1,0.,24.0,0.,24.0,1.,24.0,0.,24.0
1979-07-29 04:38:57.430 ,4,0,0.,24.0,0.,24.0,2.,24.0,0.,24.0
1979-07-29 04:39:21.430 ,5,1,0.,24.0,0.,24.0,1.,24.0,0.,24.0
1979-07-29 04:39:45.430 ,5,0,0.,24.0,0.,24.0,0.,24.0,0.,24.0
1979-07-29 04:40:09.430 ,6,1,0.,24.0,0.,24.0,3.,24.0,0.,24.0
1979-07-29 04:40:33.430 ,6,0,0.,24.0,0.,24.0,4.,24.0,0.,24.0
1979-07-29 04:40:57.430 ,7,1,10.,24.0,1.,24.0,2.,24.0,0.,24.0
1979-07-29 04:41:21.430 ,7,0,28.,24.0,0.,24.0,2.,24.0,0.,24.0
1979-07-29 04:41:45.430 ,7,1,37.,24.0,0.,24.0,4.,24.0,0.,24.0
1979-07-29 04:42:09.430 ,7,0,29.,24.0,0.,24.0,2.,24.0,0.,24.0
1979-07-29 04:42:33.430 ,6,1,16.,24.0,0.,24.0,1.,24.0,0.,24.0
1979-07-29 04:42:57.430 ,6,0,0.,24.0,0.,24.0,1.,24.0,0.,24.0
1979-07-29 04:43:21.430 ,5,1,0.,24.0,0.,24.0,2.,24.0,0.,24.0
1979-07-29 04:43:45.430 ,5,0,0.,24.0,0.,24.0,0.,24.0,0.,24.0
1979-07-29 04:44:09.430 ,4,1,0.,24.0,0.,24.0,3.,24.0,0.,24.0
1979-07-29 04:44:33.430 ,4,0,0.,24.0,0.,24.0,2.,24.0,0.,24.0
1979-07-29 04:44:57.430 ,3,1,0.,24.0,1.,24.0,3.,24.0,0.,24.0
1979-07-29 04:45:21.430 ,3,0,0.,24.0,0.,24.0,1.,24.0,0.,24.0
1979-07-29 04:45:45.430 ,2,1,0.,24.0,0.,24.0,2.,24.0,0.,24.0
1979-07-29 04:46:09.430 ,2,0,0.,24.0,0.,24.0,1.,24.0,0.,24.0
1979-07-29 04:46:33.430 ,1,1,0.,24.0,0.,24.0,2.,24.0,0.,24.0
1979-07-29 04:46:57.430 ,1,0,0.,24.0,0.,24.0,6.,24.0,0.,24.0
1979-07-29 04:47:21.430 ,0,1,0.,24.0,0.,24.0,5.,24.0,0.,24.0
1979-07-29 04:47:45.430 ,0,0,0.,24.0,0.,24.0,3.,24.0,0.,24.0
1979-07-29 04:48:09.430 ,0,1,0.,24.0,1.,24.0,2.,24.0,0.,24.0
1979-07-29 04:48:33.430 ,0,0,0.,24.0,0.,24.0,2.,24.0,0.,24.0
1979-07-29 04:48:57.430 ,1,1,0.,24.0,0.,24.0,3.,24.0,0.,24.0
1979-07-29 04:49:21.430 ,1,0,0.,24.0,0.,24.0,1.,24.0,0.,24.0
1979-07-29 04:49:45.430 ,2,1,0.,24.0,0.,24.0,0.,24.0,0.,24.0
1979-07-29 04:50:09.430 ,2,0,0.,24.0,0.,24.0,1.,24.0,0.,24.0
1979-07-29 04:50:33.430 ,3,1,0.,24.0,0.,24.0,2.,24.0,0.,24.0
1979-07-29 04:50:57.430 ,3,0,0.,24.0,0.,24.0,0.,24.0,0.,24.0
1979-07-29 04:51:21.430 ,4,1,0.,24.0,0.,24.0,0.,24.0,0.,24.0
1979-07-29 04:51:45.430 ,4,0,0.,24.0,0.,24.0,4.,24.0,0.,24.0
1979-07-29 04:52:09.430 ,5,1,0.,24.0,0.,24.0,3.,24.0,0.,24.0
1979-07-29 04:52:33.430 ,5,0,0.,24.0,0.,24.0,2.,24.0,0.,24.0
1979-07-29 04:53:21.430 ,6,0,0.,24.0,1.,24.0,2.,24.0,0.,24.0
1979-07-29 04:53:45.430 ,7,1,7.,24.0,0.,24.0,3.,24.0,0.,24.0
1979-07-29 04:54:09.430 ,7,0,33.,24.0,0.,24.0,0.,24.0,0.,24.0
1979-07-29 04:54:33.430 ,7,1,30.,24.0,0.,24.0,1.,24.0,0.,24.0
1979-07-29 04:54:57.430 ,7,0,40.,24.0,0.,24.0,0.,24.0,0.,24.0
1979-07-29 04:55:21.430 ,6,1,29.,24.0,0.,24.0,1.,24.0,0.,24.0
1979-07-29 04:55:45.430 ,6,0,0.,24.0,0.,24.0,2.,24.0,0.,24.0
1979-07-29 04:56:09.430 ,5,1,0.,24.0,0.,24.0,1.,24.0,0.,24.0
1979-07-29 04:56:33.430 ,5,0,0.,24.0,0.,24.0,2.,24.0,0.,24.0
1979-07-29 04:56:57.430 ,4,1,0.,24.0,0.,24.0,1.,24.0,0.,24.0
1979-07-29 04:57:21.430 ,4,0,0.,24.0,0.,24.0,3.,24.0,0.,24.0
1979-07-29 04:57:45.430 ,3,1,0.,24.0,1.,24.0,2.,24.0,0.,24.0
1979-07-29 04:58:09.430 ,3,0,0.,24.0,0.,24.0,1.,24.0,0.,24.0
1979-07-29 04:58:33.430 ,2,1,0.,24.0,1.,24.0,3.,24.0,0.,24.0
1979-07-29 04:58:57.430 ,2,0,0.,24.0,0.,24.0,5.,24.0,0.,24.0
1979-07-29 04:59:21.430 ,1,1,0.,24.0,0.,24.0,0.,24.0,0.,24.0
1979-07-29 04:59:45.430 ,1,0,0.,24.0,0.,24.0,2.,24.0,0.,24.0
1979-07-29 05:00:09.430 ,0,1,0.,24.0,0.,24.0,2.,24.0,0.,24.0
1979-07-29 05:00:33.430 ,0,0,0.,24.0,0.,24.0,3.,24.0,0.,24.0
1979-07-29 05:00:57.430 ,0,1,0.,24.0,0.,24.0,3.,24.0,0.,24.0
1979-07-29 05:01:21.430 ,0,0,0.,24.0,0.,24.0,1.,24.0,0.,24.0
1979-07-29 05:01:45.430 ,1,1,0.,24.0,0.,24.0,3.,24.0,0.,24.0
1979-07-29 05:02:09.430 ,1,0,0.,24.0,0.,24.0,3.,24.0,0.,24.0
1979-07-29 05:02:33.430 ,2,1,0.,24.0,0.,24.0,2.,24.0,0.,24.0
1979-07-29 05:02:57.430 ,2,0,0.,24.0,0.,24.0,1.,24.0,0.,24.0
1979-07-29 05:03:21.430 ,3,1,0.,24.0,0.,24.0,2.,24.0,0.,24.0
1979-07-29 05:03:45.430 ,3,0,0.,24.0,0.,24.0,1.,24.0,0.,24.0
1979-07-29 05:04:09.430 ,4,1,0.,24.0,0.,24.0,3.,24.0,0.,24.0
1979-07-29 05:04:33.430 ,4,0,0.,24.0,0.,24.0,1.,24.0,0.,24.0
1979-07-29 05:04:57.430 ,5,1,0.,24.0,0.,24.0,4.,24.0,0.,24.0
1979-07-29 05:05:21.430 ,5,0,0.,24.0,0.,24.0,2.,24.0,0.,24.0
1979-07-29 05:05:45.430 ,6,1,0.,24.0,0.,24.0,1.,24.0,0.,24.0
1979-07-29 05:06:09.430 ,6,0,0.,24.0,0.,24.0,2.,24.0,0.,24.0
1979-07-29 05:06:33.430 ,7,0,4.,24.0,0.,24.0,2.,24.0,0.,24.0
1979-07-29 05:06:57.430 ,7,0,28.,24.0,0.,24.0,1.,24.0,0.,24.0
1979-07-29 05:07:21.430 ,5,1,16.,24.0,0.,24.0,5.,24.0,0.,24.0
1979-07-29 05:07:45.430 ,1,1,0.,24.0,0.,24.0,0.,24.0,0.,24.0
1979-07-29 05:08:09.430 ,2,1,0.,24.0,0.,24.0,4.,24.0,0.,24.0
1979-07-29 05:08:33.430 ,6,1,0.,24.0,0.,24.0,2.,24.0,0.,24.0
1979-07-29 05:08:57.430 ,5,1,17.,24.0,0.,24.0,3.,24.0,0.,24.0
1979-07-29 05:09:21.430 ,1,1,0.,24.0,0.,24.0,0.,24.0,0.,24.0
1979-07-29 05:09:45.430 ,2,1,0.,24.0,0.,24.0,0.,24.0,0.,24.0
1979-07-29 05:10:09.430 ,6,1,0.,24.0,0.,24.0,2.,24.0,0.,24.0
1979-07-29 05:10:33.430 ,5,1,13.,24.0,0.,24.0,0.,24.0,0.,24.0
1979-07-29 05:10:57.430 ,1,1,1.,24.0,0.,24.0,0.,24.0,0.,24.0
1979-07-29 05:11:21.430 ,2,1,0.,24.0,0.,24.0,0.,24.0,0.,24.0
1979-07-29 05:11:45.430 ,6,1,1.,24.0,0.,24.0,1.,24.0,0.,24.0
1979-07-29 05:12:09.430 ,5,1,16.,24.0,0.,24.0,3.,24.0,0.,24.0
1979-07-29 05:12:33.430 ,1,1,0.,24.0,0.,24.0,0.,24.0,0.,24.0
1979-07-29 05:12:57.430 ,2,1,0.,24.0,0.,24.0,4.,24.0,0.,24.0
1979-07-29 05:13:21.430 ,6,1,0.,24.0,0.,24.0,1.,24.0,0.,24.0
1979-07-29 05:13:45.430 ,5,1,12.,24.0,0.,24.0,3.,24.0,0.,24.0
1979-07-29 05:14:09.430 ,1,1,0.,24.0,0.,24.0,1.,24.0,0.,24.0
1979-07-29 05:14:33.430 ,2,1,0.,24.0,1.,24.0,3.,24.0,0.,24.0
1979-07-29 05:14:57.430 ,6,1,0.,24.0,1.,24.0,1.,24.0,0.,24.0
1979-07-29 05:15:21.430 ,5,1,15.,24.0,0.,24.0,2.,24.0,0.,24.0
1979-07-29 05:15:45.430 ,1,1,0.,24.0,0.,24.0,1.,24.0,0.,24.0
1979-07-29 05:16:09.430 ,2,1,1.,24.0,0.,24.0,2.,24.0,0.,24.0
1979-07-29 05:16:33.430 ,6,1,0.,24.0,0.,24.0,4.,24.0,0.,24.0
1979-07-29 05:16:57.430 ,5,1,17.,24.0,0.,24.0,2.,24.0,0.,24.0
1979-07-29 05:17:21.430 ,1,1,0.,24.0,0.,24.0,2.,24.0,0.,24.0
1979-07-29 05:17:45.430 ,0,0,0.,24.0,0.,24.0,1.,24.0,0.,24.0
1979-07-29 05:18:09.430 ,0,0,0.,24.0,0.,24.0,4.,24.0,0.,24.0
1979-07-29 05:18:33.430 ,5,1,13.,24.0,0.,24.0,2.,24.0,0.,24.0
1979-07-29 05:18:57.430 ,5,0,0.,24.0,0.,24.0,4.,24.0,0.,24.0
1979-07-29 05:19:21.430 ,4,1,0.,24.0,0.,24.0,2.,24.0,0.,24.0
1979-07-29 05:19:45.430 ,4,0,0.,24.0,0.,24.0,1.,24.0,0.,24.0
1979-07-29 05:20:09.430 ,3,1,0.,24.0,0.,24.0,1.,24.0,0.,24.0
1979-07-29 05:20:33.430 ,3,0,0.,24.0,0.,24.0,1.,24.0,0.,24.0
1979-07-29 05:20:57.430 ,2,1,0.,24.0,0.,24.0,3.,24.0,0.,24.0
1979-07-29 05:21:21.430 ,2,0,0.,24.0,0.,24.0,2.,24.0,0.,24.0
1979-07-29 05:21:45.430 ,1,1,0.,24.0,0.,24.0,1.,24.0,0.,24.0
1979-07-29 05:22:09.430 ,1,0,0.,24.0,0.,24.0,1.,24.0,0.,24.0
1979-07-29 05:22:33.430 ,0,1,0.,24.0,0.,24.0,5.,24.0,0.,24.0
1979-07-29 05:22:57.430 ,0,0,0.,24.0,0.,24.0,2.,24.0,0.,24.0
1979-07-29 05:23:21.430 ,0,1,0.,24.0,0.,24.0,0.,24.0,0.,24.0
1979-07-29 05:23:45.430 ,0,0,0.,24.0,0.,24.0,0.,24.0,0.,24.0
1979-07-29 05:24:09.430 ,1,1,0.,24.0,0.,24.0,5.,24.0,0.,24.0
1979-07-29 05:24:33.430 ,1,0,0.,24.0,0.,24.0,2.,24.0,0.,24.0
1979-07-29 05:24:57.430 ,2,1,0.,24.0,0.,24.0,2.,24.0,0.,24.0
1979-07-29 05:25:21.430 ,2,0,0.,24.0,0.,24.0,2.,24.0,0.,24.0
1979-07-29 05:25:45.430 ,3,1,0.,24.0,0.,24.0,1.,24.0,0.,24.0
1979-07-29 05:26:09.430 ,3,0,0.,24.0,0.,24.0,0.,24.0,0.,24.0
1979-07-29 05:26:33.430 ,4,1,0.,24.0,0.,24.0,1.,24.0,0.,24.0
1979-07-29 05:26:57.430 ,4,0,0.,24.0,0.,24.0,2.,24.0,0.,24.0
1979-07-29 05:27:21.430 ,5,1,0.,24.0,0.,24.0,1.,24.0,0.,24.0
1979-07-29 05:27:45.430 ,5,0,0.,24.0,0.,24.0,3.,24.0,0.,24.0
1979-07-29 05:28:09.430 ,6,1,0.,24.0,0.,24.0,2.,24.0,0.,24.0
1979-07-29 05:28:33.430 ,6,0,0.,24.0,0.,24.0,1.,24.0,0.,24.0
1979-07-29 05:28:57.430 ,7,1,6.,24.0,0.,24.0,2.,24.0,0.,24.0
1979-07-29 05:29:21.430 ,7,0,27.,24.0,0.,24.0,4.,24.0,0.,24.0
1979-07-29 05:29:45.430 ,7,1,31.,24.0,0.,24.0,0.,24.0,0.,24.0
1979-07-29 05:30:09.430 ,7,0,38.,24.0,0.,24.0,1.,24.0,0.,24.0
1979-07-29 05:30:33.430 ,6,1,33.,24.0,0.,24.0,1.,24.0,0.,24.0
1979-07-29 05:30:57.430 ,6,0,0.,24.0,0.,24.0,2.,24.0,0.,24.0
1979-07-29 05:31:21.430 ,5,1,0.,24.0,0.,24.0,4.,24.0,0.,24.0
1979-07-29 05:31:45.430 ,5,0,0.,24.0,0.,24.0,4.,24.0,0.,24.0
1979-07-29 05:32:09.430 ,4,1,1.,24.0,0.,24.0,1.,24.0,0.,24.0
1979-07-29 05:32:33.430 ,4,0,0.,24.0,0.,24.0,4.,24.0,0.,24.0
1979-07-29 05:32:57.430 ,3,1,0.,24.0,0.,24.0,2.,24.0,0.,24.0
1979-07-29 05:33:21.430 ,3,0,1.,24.0,0.,24.0,5.,24.0,0.,24.0
1979-07-29 05:33:45.430 ,2,1,0.,24.0,0.,24.0,1.,24.0,0.,24.0
1979-07-29 05:34:09.430 ,2,0,0.,24.0,0.,24.0,3.,24.0,0.,24.0
1979-07-29 05:35:21.430 ,0,0,0.,24.0,0.,24.0,5.,24.0,0.,24.0
1979-07-29 05:35:45.430 ,0,0,0.,24.0,0.,24.0,2.,24.0,0.,24.0
1979-07-29 05:36:09.430 ,0,1,1.,24.0,0.,24.0,0.,24.0,0.,24.0
1979-07-29 05:36:33.430 ,0,0,0.,24.0,1.,24.0,4.,24.0,0.,24.0
1979-07-29 05:36:57.430 ,1,1,0.,24.0,0.,24.0,2.,24.0,0.,24.0